Location: Ward Pound Ridge Reservation
(41.2500°N, 73.6000°W)
Time: 09:56:33
(UTC-05:00)

Vanguard 1 - Visible Passes

Search period start: 19 January 2018 00:00
Search period end: 29 January 2018 00:00
Orbit: 649 x 3834 km, 34.3° (Epoch: 18 January)

Date Brightness Start Highest point End Pass type
(mag) Time Alt. Az. Time Alt. Az. Time Alt. Az.
19 Jan 12.6 02:13:00 43° ESE 02:13:00 43° ESE 02:25:15 10° ESE visible
19 Jan 12.3 04:25:43 44° WSW 04:30:43 54° SSW 04:51:50 10° SE visible
19 Jan 13.3 06:40:28 10° W 06:55:03 31° SW 07:13:22 10° SSE visible
20 Jan 12.5 02:32:52 49° SE 02:32:52 49° SE 02:46:47 10° ESE visible
20 Jan 12.4 04:45:34 35° WSW 04:51:58 48° SSW 05:12:32 10° SE visible
21 Jan 13.7 00:40:01 12° E 00:40:01 12° E 00:41:04 10° E visible
21 Jan 12.3 02:52:44 53° SSE 02:52:44 53° SSE 03:08:12 10° ESE visible
21 Jan 12.6 05:05:27 28° WSW 05:13:11 41° SSW 05:32:52 10° SSE visible
22 Jan 13.5 00:59:56 16° E 00:59:56 16° E 01:02:39 10° E visible
22 Jan 12.2 03:12:39 53° S 03:12:39 53° S 03:29:25 10° ESE visible
22 Jan 12.8 05:25:23 21° WSW 05:34:21 34° SSW 05:52:46 10° SSE visible
23 Jan 13.4 01:19:52 20° ESE 01:19:52 20° ESE 01:24:10 10° ESE visible
23 Jan 12.2 03:32:35 49° S 03:32:35 49° S 03:50:22 10° SE visible
23 Jan 13.0 05:45:19 15° WSW 05:55:30 27° SW 06:12:03 10° SSE visible
24 Jan 13.2 01:39:49 24° ESE 01:39:49 24° ESE 01:45:37 10° ESE visible
24 Jan 12.3 03:52:33 43° SSW 03:53:02 43° SSW 04:11:02 10° SE visible
24 Jan 13.2 06:05:49 10° WSW 06:16:39 21° SW 06:30:31 10° S visible
25 Jan 13.0 01:59:48 27° SE 01:59:48 27° SE 02:06:57 10° ESE visible
25 Jan 12.5 04:12:32 36° SW 04:14:14 36° SSW 04:31:18 10° SSE visible
25 Jan 13.5 06:29:38 10° WSW 06:37:47 15° SW 06:47:26 10° SSW visible
26 Jan 12.9 02:19:49 30° SE 02:19:49 30° SE 02:28:04 10° SE visible
26 Jan 12.7 04:32:33 28° SW 04:35:25 30° SSW 04:51:04 10° SSE visible
27 Jan 12.8 02:39:51 31° SSE 02:39:51 31° SSE 02:48:57 10° SE visible
27 Jan 12.9 04:52:35 21° SW 04:56:36 23° SSW 05:10:10 10° S visible
28 Jan 12.8 02:59:54 30° SSE 02:59:54 30° SSE 03:09:30 10° SE visible
28 Jan 13.1 05:12:38 14° SW 05:17:49 17° SW 05:28:11 10° S visible
